Meteo Giornale » Osservazioni meteo Stati Uniti (USA) » Dover

ore: 00:55 - Osservazioni Meteo Dover
Lat. 39° 8' N Lon. 75° 28' W Alt. 9 metri s.l.m.

poco_nuvoloso

24 °C

Poco Nuvoloso

Temp. 24 Ore

23 °C

28 °C

Sud

7.4 Km/h

Dew point 22 °C

Umidità 88 %

Visibilità  10 Km

Il sole sorge alle ore 06:30

Il sole tramonta alle ore 19:32

Data e Ora Cielo e Fenomeni T °C DP °C Um. % Pres. hPa Vis. km Vento km/h
Oggi h: 00:55 poco_nuvoloso Poco Nuvoloso 24 22 88 1017 10 S 7.4
Ieri h: 23:55 coperto Coperto 24 22 88 1017 10 N 0
Ieri h: 22:55 coperto Coperto 24 22 88 1017 10 S 7.4
Ieri h: 21:55 molto_nuvoloso Molto Nuvoloso 24 22 88 1017 10 S/SE 7.4
Ieri h: 20:55 molto_nuvoloso Molto Nuvoloso 24 22 88 1017 10 S/SE 9.3
Ieri h: 19:55 poco_nuvoloso Poco Nuvoloso 25 22 83 1017 10 SE 9.3
Ieri h: 18:55 coperto Coperto 26 22 78 1017 10 S/SE 9.3
Ieri h: 17:55 coperto Coperto 27 22 74 1018 10 S/SE 7.4
Ieri h: 17:50 molto_nuvoloso Molto Nuvoloso 27 22 74 1018 10 E/SE 7.4
Ieri h: 17:30 molto_nuvoloso Molto Nuvoloso 27 21 69 1018 10 N 5.5
Ieri h: 16:55 sereno Sereno 28 20 61 1018 10 E/NE 9.3
Ieri h: 15:55 molto_nuvoloso Molto Nuvoloso 28 22 69 1018 10 N 5.5
Ieri h: 14:55 molto_nuvoloso Molto Nuvoloso 27 22 74 1018 10 N 5.5
Ieri h: 13:56 molto_nuvoloso Molto Nuvoloso 27 23 78 1018 10 E/SE 9.3
Ieri h: 13:55 coperto_pioggia Pioviggine 27 22 74 1018 10 E/SE 11.1
Ieri h: 13:36 coperto_pioggia Pioviggine 28 23 74 1018 10 SE 9.3
Ieri h: 13:32 molto_nuvoloso Molto Nuvoloso 28 23 74 1019 10 SE 9.3
Ieri h: 12:55 coperto Coperto 26 21 73 1019 10 E/SE 7.4
Ieri h: 11:55 coperto Coperto 26 22 78 1019 10 E/NE 7.4
Ieri h: 10:55 nuvoloso Nuvoloso 27 22 74 1019 10 E/NE 11.1
Ieri h: 09:55 nuvoloso Nuvoloso 25 22 83 1019 10 E/NE 7.4
Ieri h: 08:55 coperto Coperto 25 22 83 1019 10 E/NE 9.3
Ieri h: 07:55 nuvoloso Nuvoloso 25 22 83 1018 10 N/NE 13
Ieri h: 06:55 coperto Coperto 24 22 88 1018 10 N 5.5
Ieri h: 06:20 molto_nuvoloso Molto Nuvoloso 23 22 94 1018 14 N 5.5
Ieri h: 06:17 molto_nuvoloso Molto Nuvoloso 23 22 94 1018 14 N 5.5
Ieri h: 06:14 nuvoloso Nuvoloso 23 22 94 1018 14 N 5.5
Ieri h: 05:55 molto_nuvoloso Molto Nuvoloso 24 22 88 1017 10 N 0
Ieri h: 04:55 coperto Coperto 23 22 94 1017 10 N 0
Ieri h: 03:55 coperto Coperto 24 22 88 1017 10 N 0
Ieri h: 03:46 coperto Coperto 24 22 88 1017 10 N 5.5
Ieri h: 03:40 coperto Coperto 24 22 88 1017 10 N 7.4
Ieri h: 03:13 coperto Coperto 24 22 88 1017 10 N 5.5
Ieri h: 03:01 coperto Coperto 24 22 88 1017 10 N 0
Ieri h: 02:55 coperto Coperto 24 22 88 1017 10 N 0
Ieri h: 02:44 coperto Coperto 24 22 88 1018 10 N 0
Ieri h: 02:35 coperto Coperto 24 22 88 1018 10 N 0